Weather History for Jersey, United Kingdom

Change the Weather History Date:

Thursday, January 30, 2014

  Actual Average Record
Temperature  
Mean Temperature 43 °F -  
Max Temperature 47 °F 46 °F 53 °F (2002)
Min Temperature 38 °F 39 °F 32 °F (1997)
Degree Days  
Heating Degree Days 22    
Moisture  
Dew Point 38 °F    
Average Humidity 83    
Maximum Humidity 93    
Minimum Humidity 68    
Precipitation  
Precipitation 0.00 in - - ()
Sea Level Pressure  
Sea Level Pressure 29.56 in    
Wind  
Wind Speed 4 mph ()    
Max Wind Speed 10 mph    
Max Gust Speed -    
Visibility 8.6 miles    
Events Rain    
Averages and records for this station are not official NWS values.
T = Trace of Precipitation, MM = Missing Value Source: Averaged Metar Reports

Daily Weather History Graph

Daily Weather History Graph

Search for Another Location

Airport:

Trip Planner

Search our weather history database for the weather conditions in past years. The results will help you decide how hot, cold, wet, or windy it might be!

Date:

Astronomy

Jan. 30, 2014 Rise Set
Actual Time 7:42 AM GMT 5:01 PM GMT
Civil Twilight 7:08 AM GMT 5:36 PM GMT
Nautical Twilight 6:30 AM GMT 6:14 PM GMT
Astronomical Twilight 5:52 AM GMT 6:52 PM GMT
Moon 6:54 AM GMT (1/30) 5:00 PM GMT (1/30)
Length of Visible Light 10h 27m
Length of Day
9h 19m
Waning Crescent, 0% of the Moon is Illuminated
Jan 30
Waning Crescent
Jan 30
New
Feb 6
First Quarter
Feb 14
Full
Feb 22
Last Quarter

Hourly Weather History & Observations

Time (GMT) Temp. Windchill Dew Point Humidity Pressure Visibility Wind Dir Wind Speed Gust Speed Precip Events Conditions
12:00 AM 41 °F - 38 °F 85% 29.46 in 16 mi NNW 2.3 mph - -   Mostly Cloudy
1:00 AM 41 °F - 37 °F 80% 29.47 in 16 mi North 5.8 mph - -   Mostly Cloudy
2:00 AM 40 °F - 36 °F 82% 29.48 in 16 mi North 5.8 mph - -   Mostly Cloudy
3:00 AM 41 °F - 36 °F 78% 29.49 in 22 mi NNW 4.6 mph - -   Mostly Cloudy
3:50 AM 42.8 °F 39.3 °F 37.4 °F 81% 29.47 in 6.2 mi NNW 5.8 mph - N/A   Scattered Clouds
4:00 AM 41 °F - 37 °F 79% 29.50 in 22 mi NNW 6.9 mph - -   Partly Cloudy
4:20 AM 42.8 °F 40.1 °F 39.2 °F 87% 29.47 in 6.2 mi NNE 4.6 mph - N/A   Scattered Clouds
4:50 AM 42.8 °F 40.1 °F 39.2 °F 87% 29.47 in 6.2 mi North 4.6 mph - N/A   Scattered Clouds
5:00 AM 42 °F - 38 °F 79% 29.50 in 28 mi North 4.6 mph - -   Partly Cloudy
5:20 AM 42.8 °F 41.1 °F 39.2 °F 87% 29.50 in 6.2 mi North 3.5 mph - N/A   Scattered Clouds
5:50 AM 41.0 °F 38.0 °F 37.4 °F 87% 29.50 in 6.2 mi NNE 4.6 mph - N/A   Partly Cloudy
6:00 AM 41 °F - 38 °F 83% 29.52 in 19 mi NNE 3.5 mph - -   Scattered Clouds
6:20 AM 41.0 °F 39.0 °F 37.4 °F 87% 29.50 in 6.2 mi NNE 3.5 mph - N/A   Partly Cloudy
6:50 AM 41.0 °F 39.0 °F 35.6 °F 81% 29.50 in 6.2 mi ENE 3.5 mph - N/A   Partly Cloudy
7:00 AM 40 °F - 36 °F 81% 29.54 in 19 mi NE 4.6 mph - -   Mostly Cloudy
7:20 AM 39.2 °F 35.9 °F 37.4 °F 93% 29.53 in 6.2 mi NNE 4.6 mph - N/A   Scattered Clouds
7:50 AM 41.0 °F 38.0 °F 37.4 °F 87% 29.53 in 6.2 mi ENE 4.6 mph - N/A   Partly Cloudy
8:00 AM 41 °F - 38 °F 84% 29.56 in 16 mi NE 4.6 mph - -   Mostly Cloudy
8:20 AM 42.8 °F 39.3 °F 39.2 °F 87% 29.53 in 6.2 mi NE 5.8 mph - N/A   Scattered Clouds
8:50 AM 42.8 °F 40.1 °F 39.2 °F 87% 29.56 in 6.2 mi NE 4.6 mph - N/A   Scattered Clouds
9:00 AM 42 °F - 39 °F 85% 29.57 in 19 mi NNE 5.8 mph - -   Mostly Cloudy
9:20 AM 44.6 °F 41.4 °F 41.0 °F 87% 29.56 in 6.2 mi NE 5.8 mph - N/A   Partly Cloudy
9:50 AM 46.4 °F 45.2 °F 41.0 °F 81% 29.56 in 6.2 mi Variable 3.5 mph - N/A   Partly Cloudy
10:00 AM 46 °F - 42 °F 79% 29.57 in 16 mi ENE 5.8 mph - -   Partly Cloudy
10:20 AM 44.6 °F 41.4 °F 41.0 °F 87% 29.56 in 6.2 mi NE 5.8 mph - N/A   Partly Cloudy
10:50 AM 42.8 °F 38.6 °F 39.2 °F 87% 29.56 in 6.2 mi North 6.9 mph - N/A   Mostly Cloudy
11:00 AM 43 °F - 39 °F 79% 29.59 in 5 mi NNW 8.1 mph - -   Mostly Cloudy
11:20 AM 42.8 °F 40.1 °F 39.2 °F 87% 29.56 in 6.2 mi NNW 4.6 mph - N/A Rain Rain Showers
11:50 AM 42.8 °F 40.1 °F 39.2 °F 87% 29.56 in 6.2 mi NE 4.6 mph - N/A Rain Light Rain Showers
12:00 PM 43 °F - 40 °F 86% 29.59 in 5 mi NE 4.6 mph - - Rain Light Rain Showers
12:20 PM 44.6 °F - 41.0 °F 87% 29.56 in 6.2 mi Variable 1.2 mph - N/A   Scattered Clouds
12:50 PM 46.4 °F 45.2 °F 41.0 °F 81% 29.56 in 6.2 mi Variable 3.5 mph - N/A   Scattered Clouds
1:00 PM 46 °F - 40 °F 74% 29.57 in 16 mi North 2.3 mph - - Rain Light Rain Showers
1:20 PM 46.4 °F 44.3 °F 39.2 °F 76% 29.56 in 6.2 mi SW 4.6 mph - N/A   Mostly Cloudy
1:50 PM 44.6 °F 41.4 °F 39.2 °F 81% 29.56 in 6.2 mi WSW 5.8 mph - N/A   Mostly Cloudy
2:00 PM 45 °F - 39 °F 71% 29.57 in 28 mi West 5.8 mph - -   Mostly Cloudy
2:20 PM 44.6 °F 43.1 °F 39.2 °F 81% 29.56 in 6.2 mi WSW 3.5 mph - N/A   Mostly Cloudy
2:50 PM 46.4 °F 42.9 °F 39.2 °F 76% 29.56 in 6.2 mi WSW 6.9 mph - N/A   Scattered Clouds
3:00 PM 46 °F - 39 °F 68% 29.57 in 25 mi West 4.6 mph - -   Partly Cloudy
3:20 PM 44.6 °F 40.2 °F 39.2 °F 81% 29.56 in 6.2 mi WSW 8.1 mph - N/A   Scattered Clouds
3:50 PM 44.6 °F 43.1 °F 39.2 °F 81% 29.56 in 6.2 mi SW 3.5 mph - N/A   Mostly Cloudy
4:00 PM 44 °F - 39 °F 76% 29.58 in 5 mi SW 5.8 mph - -   Mostly Cloudy
4:20 PM 42.8 °F 37.0 °F 39.2 °F 87% 29.56 in 6.2 mi West 10.4 mph - N/A Rain Light Rain Showers
4:50 PM 41.0 °F - 37.4 °F 87% 29.59 in 6.2 mi West 2.3 mph - N/A Rain Light Rain Showers
5:00 PM 41 °F - 38 °F 85% 29.60 in 16 mi West 4.6 mph - - Rain Light Rain Showers
5:20 PM 41.0 °F 39.0 °F 37.4 °F 87% 29.59 in 6.2 mi Variable 3.5 mph - N/A Rain Light Rain Showers
5:50 PM 41.0 °F - 37.4 °F 87% 29.59 in 6.2 mi ESE 2.3 mph - N/A   Scattered Clouds
6:00 PM 42 °F - 38 °F 81% 29.60 in 19 mi SE 2.3 mph - - Rain Light Rain Showers
6:20 PM 41.0 °F 38.0 °F 37.4 °F 87% 29.59 in 6.2 mi ESE 4.6 mph - N/A   Partly Cloudy
6:50 PM 41.0 °F 38.0 °F 37.4 °F 87% 29.59 in 6.2 mi SE 4.6 mph - N/A   Partly Cloudy
7:00 PM 41 °F - 37 °F 80% 29.61 in 28 mi ESE 4.6 mph - -   Mostly Cloudy
7:20 PM 41.0 °F 38.0 °F 37.4 °F 87% 29.59 in 6.2 mi ESE 4.6 mph - N/A   Partly Cloudy
7:50 PM 42.8 °F 41.1 °F 37.4 °F 81% 29.62 in 6.2 mi SE 3.5 mph - N/A   Mostly Cloudy
8:00 PM 41 °F - 36 °F 75% 29.63 in 28 mi SE 4.6 mph - -   Mostly Cloudy
8:20 PM 41.0 °F 38.0 °F 37.4 °F 87% 29.59 in 6.2 mi East 4.6 mph - N/A   Partly Cloudy
8:50 PM 41.0 °F 39.0 °F 37.4 °F 87% 29.62 in 6.2 mi East 3.5 mph - N/A   Partly Cloudy
9:00 PM 41 °F - 37 °F 80% 29.63 in 31 mi East 2.3 mph - -   Scattered Clouds
10:00 PM 40 °F - 38 °F 88% 29.64 in 28 mi NE 5.8 mph - -   Scattered Clouds
11:00 PM 38 °F - 36 °F 90% 29.65 in 28 mi South 5.8 mph - -   Scattered Clouds